Погода в Кладрубах

Чехия     49°42′55″N   12°58′48″E
темп.,
°C
ветер,
м/с
пор.,
м/с
влажн.,
%
обл.,
%
осадки,
мм/ч
давл.,
гПа
погр.,
м
14 мая, пт
пт1423:00+8зюз2699100 2.1 1007249
02:00+8з4996100 2.5 1007458
05:00+8з41098100 1.5 1006509
08:00+8з41096100 2.1 1007454
11:00+10з4792100 0.1 1008618
14:00+14з566667 0.8 10071306
17:00+14зсз466913 1.4 10071173
20:00+10ссз22861 1.9 100821
15 мая, сб
сб1523:00+7з22934 0.0 101014
02:00+6зюз22955 0.0 101119
05:00+5зюз2397100 0.0 101167
08:00+9зюз3790100 0.0 1011361
11:00+12ююз4570100 0.1 1010998
14:00+15ююз5651100 0.2 10071958
17:00+14зюз565699 0.1 10061482
20:00+10з4892100 1.4 1006241
16 мая, вс
вс1623:00+7з3896100 3.3 1008438
02:00+7юз489798 3.6 1008473
05:00+6юз4997100 0.1 1009361
08:00+8юз4993100 0.2 1009683
11:00+9юз488999 0.1 1008748
14:00+13зюз466247 0.6 10051405
17:00+10зюз51093100 2.8 1006800
20:00+9юз41092100 3.1 1006556
17 мая, пн
пн1723:00+8зюз41195100 0.1 1007457
02:00+8ююз2895100 0.3 1007279
05:00+8зюз5109376 0.4 1007665
08:00+8юз51193100 0.6 10081114
11:00+8зюз6128723 0.3 1009983
14:00+12з8126798 0.9 10081766
17:00+11з6106672 0.4 10081516
20:00+9зюз5107854 0.6 1010910
18 мая, вт
вт1823:00+6юз4119313 0.0 1011489
02:00+6зюз5139271 0.0 1010655
05:00+7зюз51188100 0.0 1011831
08:00+7юз51092100 0.3 10121150
11:00+8з4993100 0.6 10131108
14:00+8з6109298 1.3 1014848
17:00+9з6118781 0.4 10151088
20:00+7зюз61191100 0.4 1017917